[[{"header":{"parameterUnit":"m.s-1","parameterCategory":2,"la1":30.2991,"la2":30.254,"lo1":-89.0895,"lo2":-89.0444,"dy":0.0017,"dx":0.0017,"nx":28,"ny":28,"refTime":"2026-01-05T03:00:00:Z","depth":"0","parameterNumber":2,"parameterNumberName":"U-component_of_CURRENTS"},"data":[0,0,0,0,0,0,0,0,0,0,0,0,0,0,0,0,0,0,0,0,0,0,0,0,0,0,0,0,0,0,0,0,0,0,0,0,0,0,0,0,0,0,0,0,0,0,0,0,0,0,0,0,0,0,0,0,0,0,0.3879,0.3879,0,0.394,0.3941,0.3941,0.3952,0.3952,0.3952,0.3951,0.396,0.3961,0.3961,0,0,0,0,0,0,0,0,0,0,0,0,0,0.3763,0.3765,0.3878,0.3879,0.388,0.394,0.3941,0.3942,0.3952,0.3952,0.3951,0.3951,0.396,0.3961,0.3962,0,0,0,0,0,0,0,0,0,0,0,0,0,0.3816,0.3766,0.3878,0.3894,0.3897,0.394,0.3941,0.3942,0.3952,0.3952,0.3951,0.3951,0.396,0.3961,0.3962,0.3977,0,0,0.3964,0.3965,0,0,0,0,0,0,0,0,0.3813,0.382,0.3891,0.3893,0.3896,0.394,0.3904,0.3952,0.3953,0.3929,0.3951,0.3951,0.395,0.3952,0.3963,0.3977,0.3978,0.3964,0.3965,0.3965,0.3965,0,0,0,0,0,0,0,0.3809,0.3817,0.3901,0.3892,0.3895,0.3896,0.3903,0.3913,0.3939,0.3931,0.3933,0.3943,0.3951,0.3962,0.3963,0.3978,0.3964,0.3965,0.3966,0.3966,0.4024,0.4025,0,0,0,0,0,0,0.3807,0.3814,0.3899,0.3903,0.3855,0.3899,0.3907,0.3925,0.394,0.3943,0.3943,0.3943,0.3961,0.3962,0.3963,0.402,0.3965,0.3966,0.3966,0.4023,0.4024,0.4025,0,0,0,0,0,0,0.3804,0.3814,0.3897,0.3861,0.3872,0.3902,0.3922,0.3926,0.3936,0.395,0.3952,0.3949,0.396,0.3962,0.3982,0.4018,0.3966,0.3967,0.4022,0.4023,0.4025,0.4109,0,0,0,0,0,0,0.3801,0.3813,0.3821,0.3861,0.3874,0.3929,0.3923,0.3928,0.3944,0.3945,0.3956,0.3956,0.396,0.3981,0.3983,0.4019,0.3968,0.402,0.4022,0.4024,0.4104,0.4113,0.412,0,0,0,0,0,0.3797,0.3811,0.3822,0.3832,0.3886,0.393,0.3937,0.3955,0.3945,0.3959,0.3967,0.3956,0.3994,0.3983,0.3985,0.4022,0.4019,0.4022,0.4024,0.4101,0.4111,0.412,0,0,0,0,0,0,0.3768,0.3815,0.3827,0.3856,0.3894,0.3933,0.3945,0.3955,0.3972,0.397,0.397,0.3973,0.4009,0.3995,0.3982,0.4042,0.4005,0.4007,0.4062,0.4072,0.4079,0.4097,0.3968,0,0,0,0,0,0.3766,0.3787,0.3836,0.3859,0.3878,0.391,0.3927,0.3946,0.3969,0.3976,0.3988,0.3997,0.4021,0.4029,0.4045,0.4073,0.4125,0.4095,0.4103,0.411,0.4124,0.4194,0.421,0.4033,0.4033,0.4033,0,0,0.3764,0.379,0.3803,0.3854,0.3881,0.3928,0.3918,0.3954,0.3996,0.3974,0.4021,0.4027,0.4034,0.4078,0.4091,0.407,0.4207,0.4113,0.4119,0.413,0.4198,0.4216,0.4231,0.4035,0.4034,0.4034,0,0,0.3775,0.3792,0.3819,0.3858,0.3907,0.3933,0.3943,0.3992,0.4012,0.406,0.406,0.4086,0.4113,0.4137,0.4149,0.4203,0.4247,0.4201,0.4256,0.4323,0.4339,0.4353,0.4532,0.4561,0.4202,0.4202,0.4202,0,0.3768,0.3813,0.3834,0.3881,0.3915,0.3937,0.3986,0.4021,0.4071,0.4097,0.4084,0.4148,0.4149,0.4211,0.4236,0.4225,0.4303,0.4223,0.4337,0.4351,0.4364,0.4543,0.4574,0.4206,0.4206,0.4205,0.4205,0,0.3814,0.3852,0.3871,0.3938,0.3979,0.4019,0.4079,0.4118,0.4137,0.4173,0.4235,0.4246,0.4281,0.429,0.4284,0.4374,0.4421,0.4344,0.4319,0.4387,0.4572,0.4603,0.4213,0.4211,0.421,0.4209,0,0,0.3786,0.3882,0.3889,0.3933,0.401,0.4051,0.4125,0.4197,0.4256,0.429,0.4365,0.4398,0.4397,0.4409,0.4404,0.4461,0.4649,0.4448,0.445,0.4641,0.4901,0.4902,0.4937,0.4589,0.4592,0.4595,0.5027,0,0.3811,0.3896,0.3941,0.4028,0.4078,0.4134,0.4208,0.428,0.4334,0.4415,0.4432,0.4503,0.4445,0.4481,0.4521,0.4616,0.472,0.4546,0.4792,0.4802,0.4804,0.4966,0.4706,0.5062,0.5057,0.5062,0.5066,0,0.3842,0.3893,0.3978,0.4084,0.4112,0.4168,0.4284,0.436,0.4472,0.4518,0.4572,0.4604,0.4714,0.4632,0.4847,0.4742,0.4836,0.4903,0.4919,0.4903,0.4857,0.4972,0.5118,0.4937,0.5113,0.511,0.5106,0,0.3823,0.3919,0.398,0.4019,0.4145,0.4191,0.4258,0.438,0.4494,0.4596,0.4705,0.4772,0.4885,0.4955,0.5098,0.4992,0.5361,0.5222,0.5335,0.5342,0.5159,0.5141,0.5156,0.5384,0.5383,0.5381,0.538,0,0.3849,0.39,0.3969,0.4019,0.4132,0.4187,0.4335,0.4415,0.4562,0.4705,0.4755,0.4896,0.4968,0.5168,0.5213,0.5429,0.5468,0.5417,0.5448,0.5191,0.5171,0.5029,0.4949,0.5398,0.5394,0.5391,0.5388,0,0.3898,0.3904,0.4017,0.4116,0.4144,0.4247,0.4437,0.453,0.4663,0.4858,0.4914,0.51,0.5321,0.5453,0.5655,0.5645,0.5642,0.5853,0.5613,0.5604,0.5434,0.5369,0.5332,0.5178,0.6038,0.604,0.6042,0,0.3966,0.4013,0.4132,0.4176,0.4233,0.4363,0.4443,0.4582,0.4686,0.4972,0.5056,0.5347,0.5501,0.5866,0.5879,0.605,0.5796,0.5927,0.5618,0.5458,0.541,0.5175,0.5028,0.5476,0.5473,0.5471,0.5469,0,0.4131,0.4152,0.4225,0.4311,0.4375,0.449,0.4592,0.4694,0.4838,0.4999,0.5188,0.5346,0.5674,0.5704,0.5955,0.5977,0.5593,0.5887,0.5733,0.501,0.474,0.4593,0.5255,0.5449,0.5451,0.5453,0.5454,0.5455,0.4265,0.4337,0.4367,0.4439,0.4498,0.4521,0.4566,0.4651,0.4788,0.4936,0.5159,0.5321,0.5473,0.5734,0.5762,0.557,0.5526,0.5333,0.5308,0.5118,0.4799,0.5493,0.5676,0.5679,0.5682,0.5684,0.5686,0,0.4385,0.4387,0.4472,0.449,0.4501,0.4524,0.4579,0.4553,0.4597,0.4825,0.4968,0.5091,0.517,0.5247,0.5153,0.498,0.4717,0.4834,0.4375,0.4284,0.4925,0.4717,0.4678,0.4678,0.4678,0.4678,0.4678,0.4679,0.4437,0.4456,0.4442,0.4422,0.442,0.4351,0.4327,0.4298,0.4397,0.444,0.4509,0.4648,0.4753,0.4796,0.4582,0.4475,0.4086,0.3946,0.397,0.4337,0.4375,0.4412,0.4192,0.4044,0.4043,0.3062,0.3055,0.305]},{"header":{"parameterUnit":"m.s-1","parameterCategory":2,"la1":30.2991,"la2":30.254,"lo1":-89.0895,"lo2":-89.0444,"dy":0.0017,"dx":0.0017,"nx":28,"ny":28,"refTime":"2026-01-05T03:00:00:Z","depth":"0","parameterNumber":3,"parameterNumberName":"V-component_of_CURRENTS"},"data":[0,0,0,0,0,0,0,0,0,0,0,0,0,0,0,0,0,0,0,0,0,0,0,0,0,0,0,0,0,0,0,0,0,0,0,0,0,0,0,0,0,0,0,0,0,0,0,0,0,0,0,0,0,0,0,0,0,0,-0.0671,-0.0671,0,-0.0709,-0.071,-0.0711,-0.0797,-0.0798,-0.0799,-0.08,-0.0834,-0.0834,-0.0834,0,0,0,0,0,0,0,0,0,0,0,0,0,-0.0655,-0.0656,-0.0671,-0.0671,-0.0671,-0.0709,-0.0711,-0.0712,-0.0796,-0.0798,-0.0799,-0.08,-0.0834,-0.0834,-0.0834,0,0,0,0,0,0,0,0,0,0,0,0,0,-0.0681,-0.0656,-0.0671,-0.0713,-0.0717,-0.0709,-0.0711,-0.0712,-0.0796,-0.0798,-0.08,-0.0801,-0.0834,-0.0834,-0.0834,-0.0799,0,0,-0.0833,-0.0833,0,0,0,0,0,0,0,0,-0.068,-0.0683,-0.0707,-0.071,-0.0714,-0.0744,-0.0717,-0.0739,-0.0796,-0.0773,-0.08,-0.0802,-0.0798,-0.0801,-0.0814,-0.08,-0.0802,-0.0833,-0.0833,-0.0833,-0.0833,0,0,0,0,0,0,0,-0.0678,-0.0681,-0.0693,-0.0706,-0.0711,-0.0724,-0.073,-0.0722,-0.0781,-0.0775,-0.078,-0.0773,-0.0801,-0.0814,-0.0815,-0.0802,-0.0833,-0.0833,-0.0833,-0.0833,-0.0821,-0.0821,0,0,0,0,0,0,-0.0658,-0.0679,-0.0692,-0.0694,-0.0693,-0.0722,-0.073,-0.0738,-0.0781,-0.0787,-0.0771,-0.0776,-0.0814,-0.0816,-0.0817,-0.0828,-0.0833,-0.0833,-0.0833,-0.0821,-0.0821,-0.0821,0,0,0,0,0,0,-0.0658,-0.066,-0.069,-0.0681,-0.0685,-0.072,-0.0729,-0.0738,-0.0748,-0.0777,-0.0785,-0.0771,-0.0815,-0.0817,-0.0814,-0.0828,-0.0833,-0.0833,-0.0821,-0.0821,-0.0821,-0.0818,0,0,0,0,0,0,-0.0658,-0.066,-0.0643,-0.068,-0.0685,-0.0672,-0.0727,-0.0737,-0.0738,-0.0745,-0.0779,-0.0785,-0.0817,-0.0814,-0.0813,-0.0828,-0.0833,-0.0822,-0.0821,-0.0821,-0.0819,-0.0818,-0.0817,0,0,0,0,0,-0.0658,-0.0621,-0.0643,-0.0643,-0.0667,-0.0669,-0.0673,-0.0708,-0.0736,-0.0727,-0.0762,-0.0784,-0.0812,-0.0812,-0.0812,-0.0828,-0.0822,-0.0821,-0.0821,-0.0819,-0.0818,-0.0818,0,0,0,0,0,0,-0.0587,-0.0627,-0.0652,-0.0625,-0.0642,-0.0681,-0.0666,-0.0693,-0.0714,-0.0721,-0.0766,-0.0773,-0.0783,-0.079,-0.079,-0.0823,-0.0825,-0.0825,-0.0824,-0.0823,-0.0822,-0.0814,-0.0832,0,0,0,0,0,-0.0566,-0.0559,-0.0599,-0.057,-0.0584,-0.0625,-0.0624,-0.0649,-0.0674,-0.0687,-0.0718,-0.0749,-0.0779,-0.0788,-0.0804,-0.0802,-0.0776,-0.0816,-0.0815,-0.0815,-0.0807,-0.0814,-0.0814,-0.0819,-0.0819,-0.0819,0,0,-0.0528,-0.0543,-0.0539,-0.0554,-0.0579,-0.058,-0.0631,-0.0623,-0.0631,-0.0681,-0.0698,-0.0737,-0.0775,-0.0796,-0.0801,-0.0805,-0.0783,-0.0814,-0.0814,-0.0806,-0.0814,-0.0813,-0.0813,-0.0819,-0.0819,-0.0819,0,0,-0.0444,-0.0472,-0.0446,-0.0465,-0.0483,-0.0517,-0.0511,-0.0555,-0.0588,-0.0595,-0.0656,-0.0706,-0.0718,-0.0783,-0.081,-0.0806,-0.0778,-0.0802,-0.0796,-0.0803,-0.0803,-0.0803,-0.0698,-0.0689,-0.0806,-0.0806,-0.0806,0,-0.0387,-0.0376,-0.0431,-0.0417,-0.0423,-0.0489,-0.047,-0.0509,-0.0542,-0.0566,-0.0591,-0.0674,-0.0725,-0.078,-0.0805,-0.0809,-0.0757,-0.0801,-0.0803,-0.0803,-0.0802,-0.0696,-0.0686,-0.0806,-0.0806,-0.0806,-0.0806,0,-0.0304,-0.0297,-0.0282,-0.0306,-0.032,-0.0305,-0.0377,-0.0401,-0.045,-0.0496,-0.0551,-0.0636,-0.0684,-0.0729,-0.0774,-0.0809,-0.0747,-0.0799,-0.0806,-0.0802,-0.0689,-0.0678,-0.0805,-0.0806,-0.0806,-0.0806,0,0,-0.0179,-0.0215,-0.021,-0.021,-0.0263,-0.026,-0.0296,-0.0342,-0.0347,-0.0432,-0.0439,-0.0582,-0.0632,-0.0667,-0.074,-0.0785,-0.0751,-0.0789,-0.079,-0.0683,-0.066,-0.0538,-0.0514,-0.0797,-0.0797,-0.0796,-0.0556,0,-0.0095,-0.0044,-0.0097,-0.0063,-0.0056,-0.0146,-0.0165,-0.022,-0.0278,-0.0299,-0.0439,-0.0459,-0.0604,-0.061,-0.0694,-0.0718,-0.0732,-0.0804,-0.0681,-0.0675,-0.057,-0.0504,-0.0535,-0.0318,-0.0545,-0.0543,-0.0542,0,-0.0012,0.0013,0.0066,0.0043,0.0037,0.0045,0.0001,-0.0018,-0.0101,-0.014,-0.0228,-0.0298,-0.0381,-0.0497,-0.0561,-0.0584,-0.0624,-0.0663,-0.0655,-0.0541,-0.0537,-0.0374,-0.029,-0.0583,-0.0525,-0.0527,-0.0528,0,0.009,0.0114,0.0164,0.0159,0.013,0.0131,0.0112,0.0038,0.0057,-0.001,0.0041,-0.0116,-0.0086,-0.0232,-0.0324,-0.0423,-0.0333,-0.0475,-0.0396,-0.0382,-0.0385,-0.0373,-0.0579,-0.0521,-0.0522,-0.0523,-0.0523,0,0.0178,0.022,0.0227,0.0252,0.0332,0.0252,0.0314,0.0264,0.0255,0.0345,0.0159,0.0249,-0.0018,-0.0011,-0.0192,-0.0186,-0.0213,-0.0349,-0.0323,-0.0374,-0.0364,-0.0601,-0.0765,-0.0513,-0.0516,-0.0517,-0.0519,0,0.0279,0.0271,0.0346,0.0359,0.0381,0.044,0.0489,0.0543,0.0514,0.0646,0.0661,0.0602,0.0636,0.0428,0.0297,0.0095,-0.0111,0.0004,0.003,0.0051,-0.0215,-0.0374,-0.0424,-0.0527,0.0113,0.0117,0.0121,0,0.0344,0.0394,0.0467,0.0543,0.0564,0.0644,0.0714,0.0683,0.0769,0.0897,0.1009,0.1081,0.1177,0.1072,0.0728,0.0527,0.017,0.0324,0.0055,-0.0189,-0.035,-0.0477,-0.0574,0.009,0.0093,0.0096,0.0098,0,0.05,0.052,0.0588,0.0727,0.0826,0.0938,0.1042,0.1151,0.1178,0.1329,0.1557,0.166,0.1592,0.1405,0.1117,0.0869,0.0112,0.0374,0.0055,-0.0415,-0.0506,-0.0604,-0.0034,0.012,0.0118,0.0116,0.0115,0.0114,0.0649,0.0722,0.0803,0.0926,0.1052,0.1202,0.1308,0.1467,0.1662,0.1923,0.2004,0.2272,0.1905,0.1522,0.1149,0.0394,0.0376,0.007,-0.009,-0.0186,-0.0355,0.0346,0.0549,0.0549,0.0549,0.0549,0.0549,0,0.0813,0.0866,0.1,0.1129,0.1271,0.1294,0.1508,0.1643,0.1917,0.2291,0.2532,0.261,0.2084,0.1468,0.0497,-0.0034,-0.0335,-0.0356,-0.0673,-0.0747,-0.0183,-0.0266,-0.0155,-0.0155,-0.0155,-0.0155,-0.0154,-0.0154,0.0913,0.1027,0.1047,0.1275,0.1379,0.1567,0.1684,0.1941,0.2232,0.2724,0.3022,0.3226,0.2733,0.088,-0.039,-0.0679,-0.1137,-0.114,-0.1318,-0.1112,-0.1091,-0.1072,-0.1196,-0.1282,-0.1284,-0.189,-0.1896,-0.1901]}],[{"header":{"parameterUnit":"m.s-1","parameterCategory":2,"la1":30.2991,"la2":30.254,"lo1":-89.0895,"lo2":-89.0444,"dy":0.0017,"dx":0.0017,"nx":28,"ny":28,"refTime":"2026-01-05T03:00:00:Z","depth":"2","parameterNumber":2,"parameterNumberName":"U-component_of_CURRENTS"},"data":[0,0,0,0,0,0,0,0,0,0,0,0,0,0,0,0,0,0,0,0,0,0,0,0,0,0,0,0,0,0,0,0,0,0,0,0,0,0,0,0,0,0,0,0,0,0,0,0,0,0,0,0,0,0,0,0,0,0,0.2803,0.2804,0,0.2825,0.2824,0.2824,0.2806,0.2806,0.2806,0.2806,0.2831,0.2831,0.2832,0,0,0,0,0,0,0,0,0,0,0,0,0,0.2706,0.2707,0.2803,0.2804,0.2805,0.2825,0.2824,0.2824,0.2806,0.2806,0.2806,0.2806,0.2831,0.2831,0.2832,0,0,0,0,0,0,0,0,0,0,0,0,0,0.2732,0.2708,0.2802,0.2804,0.2805,0.2825,0.2824,0.2824,0.2806,0.2806,0.2806,0.2806,0.283,0.2831,0.2832,0.2838,0,0,0.2835,0.2836,0,0,0,0,0,0,0,0,0.2731,0.2735,0.2803,0.2804,0.2806,0.282,0.28,0.2831,0.2806,0.2797,0.2806,0.2806,0.2833,0.2834,0.2826,0.2839,0.284,0.2835,0.2836,0.2836,0.2837,0,0,0,0,0,0,0,0.2729,0.2734,0.2803,0.2804,0.2806,0.2791,0.2794,0.2805,0.2808,0.2798,0.2799,0.2814,0.2832,0.2825,0.2826,0.2841,0.2835,0.2836,0.2837,0.2837,0.2927,0.2929,0,0,0,0,0,0,0.2745,0.2732,0.2802,0.2804,0.2777,0.2794,0.2797,0.2808,0.2808,0.281,0.2814,0.2814,0.2823,0.2825,0.2827,0.2899,0.2836,0.2837,0.2838,0.2926,0.2928,0.293,0,0,0,0,0,0,0.2743,0.2751,0.2802,0.2775,0.2782,0.2797,0.2809,0.2809,0.2818,0.2822,0.2823,0.2826,0.2823,0.2826,0.2854,0.2897,0.2838,0.2839,0.2923,0.2926,0.2929,0.3001,0,0,0,0,0,0,0.274,0.275,0.2764,0.2777,0.2784,0.2825,0.281,0.281,0.2831,0.283,0.2833,0.2834,0.2823,0.2853,0.2855,0.2897,0.2839,0.2921,0.2925,0.2928,0.2996,0.3005,0.3014,0,0,0,0,0,0.2736,0.2753,0.2764,0.2773,0.2803,0.2826,0.2828,0.2832,0.2832,0.2838,0.2845,0.2834,0.2876,0.2855,0.2857,0.2901,0.292,0.2924,0.2928,0.2992,0.3004,0.3013,0,0,0,0,0,0,0.2713,0.2755,0.2766,0.2794,0.2817,0.2827,0.2833,0.2845,0.2853,0.2852,0.2851,0.2853,0.2895,0.2888,0.2865,0.2938,0.2899,0.2904,0.2948,0.2958,0.2967,0.3013,0.284,0,0,0,0,0,0.2719,0.2743,0.2778,0.2799,0.2811,0.2826,0.2838,0.2847,0.286,0.2863,0.2877,0.2891,0.2911,0.2926,0.2936,0.2974,0.3,0.3007,0.3016,0.3023,0.3063,0.3129,0.3147,0.2943,0.2943,0.2943,0,0,0.2717,0.2743,0.2756,0.2797,0.2806,0.2833,0.283,0.2852,0.2883,0.2866,0.2907,0.292,0.2926,0.2968,0.2988,0.2971,0.3093,0.3028,0.3035,0.3072,0.3135,0.3155,0.3173,0.2946,0.2945,0.2945,0,0,0.2724,0.2744,0.2769,0.2794,0.2831,0.2841,0.2857,0.2887,0.2904,0.2941,0.2949,0.3,0.301,0.3049,0.3061,0.313,0.3133,0.3125,0.3214,0.3276,0.3294,0.331,0.3362,0.3382,0.3134,0.3135,0.3135,0,0.2719,0.2758,0.2778,0.2811,0.2836,0.2851,0.2883,0.2903,0.2947,0.2979,0.2961,0.3044,0.3055,0.3139,0.3174,0.3154,0.3184,0.3169,0.329,0.3306,0.3321,0.3371,0.3392,0.3139,0.3138,0.3138,0.3137,0,0.2751,0.2784,0.2795,0.2844,0.2872,0.2896,0.2938,0.2984,0.3004,0.3027,0.311,0.3138,0.32,0.3212,0.3217,0.3343,0.3327,0.3287,0.3264,0.3347,0.3392,0.3413,0.3144,0.3143,0.3142,0.3141,0,0,0.2732,0.2803,0.2811,0.2841,0.2892,0.2918,0.2984,0.3048,0.3109,0.3146,0.3225,0.3296,0.3329,0.3352,0.3378,0.3453,0.3588,0.3436,0.3437,0.3492,0.3732,0.3642,0.3656,0.3567,0.3571,0.3575,0.3718,0,0.2747,0.2812,0.2847,0.2905,0.2936,0.2988,0.3048,0.3113,0.3164,0.3242,0.3296,0.3361,0.337,0.3421,0.3503,0.3576,0.3649,0.3554,0.3642,0.3646,0.3559,0.3679,0.3388,0.3485,0.3738,0.3741,0.3744,0,0.2765,0.2812,0.2867,0.295,0.2969,0.3008,0.3123,0.3185,0.3294,0.3347,0.3439,0.3458,0.3608,0.3569,0.3764,0.3704,0.3744,0.378,0.3784,0.37,0.3596,0.3445,0.3513,0.3779,0.3776,0.3773,0.3771,0,0.2739,0.2823,0.2864,0.2891,0.2986,0.3038,0.3098,0.3213,0.3285,0.3424,0.3486,0.3616,0.3708,0.3791,0.3889,0.3837,0.407,0.3983,0.3935,0.3927,0.3701,0.3666,0.4105,0.4104,0.4104,0.4104,0.4103,0,0.2731,0.2773,0.2858,0.2884,0.2958,0.3031,0.3129,0.323,0.3358,0.3432,0.354,0.3649,0.3775,0.3894,0.3943,0.4038,0.4116,0.4001,0.3978,0.3714,0.3681,0.3943,0.3922,0.4109,0.4108,0.4107,0.4106,0,0.2686,0.2743,0.2798,0.2901,0.2942,0.2994,0.3134,0.3203,0.3355,0.3467,0.351,0.3721,0.3883,0.3974,0.4136,0.4117,0.4193,0.4187,0.3873,0.3811,0.3986,0.3967,0.4145,0.4144,0.4143,0.4141,0.4141,0,0.2673,0.2692,0.2789,0.2821,0.2864,0.2961,0.3024,0.319,0.3256,0.3502,0.3537,0.3747,0.3852,0.4081,0.4096,0.4151,0.4204,0.3896,0.3737,0.4041,0.4001,0.3984,0.3968,0.3463,0.3457,0.3452,0.3447,0,0.2649,0.2668,0.2707,0.2755,0.2815,0.2878,0.2974,0.3035,0.3209,0.3304,0.3455,0.3566,0.3801,0.3772,0.388,0.3862,0.386,0.3789,0.4225,0.3489,0.3407,0.3364,0.3369,0.3401,0.3406,0.3409,0.3412,0.3413,0.262,0.2611,0.264,0.2667,0.2723,0.2739,0.2757,0.2852,0.2926,0.3027,0.3239,0.3322,0.3473,0.3486,0.3436,0.34,0.3634,0.3472,0.3485,0.3504,0.3391,0.3309,0.3265,0.3268,0.3272,0.3275,0.3277,0,0.2504,0.2519,0.2552,0.2556,0.2538,0.2629,0.2665,0.263,0.2636,0.2805,0.2882,0.274,0.2816,0.2961,0.285,0.288,0.2811,0.2757,0.2641,0.2693,0.2738,0.258,0.2242,0.2238,0.2234,0.2231,0,0,0.2454,0.2397,0.2384,0.234,0.2374,0.2294,0.2285,0.2243,0.229,0.2295,0.2347,0.2638,0.2857,0.2478,0.2476,0.2338,0.2471,0.2244,0.3087,0.3001,0.3039,0.3182,0.3003,0,0,0,0,0]},{"header":{"parameterUnit":"m.s-1","parameterCategory":2,"la1":30.2991,"la2":30.254,"lo1":-89.0895,"lo2":-89.0444,"dy":0.0017,"dx":0.0017,"nx":28,"ny":28,"refTime":"2026-01-05T03:00:00:Z","depth":"2","parameterNumber":3,"parameterNumberName":"V-component_of_CURRENTS"},"data":[0,0,0,0,0,0,0,0,0,0,0,0,0,0,0,0,0,0,0,0,0,0,0,0,0,0,0,0,0,0,0,0,0,0,0,0,0,0,0,0,0,0,0,0,0,0,0,0,0,0,0,0,0,0,0,0,0,0,0.0201,0.0201,0,0.0131,0.013,0.013,0.0076,0.0076,0.0075,0.0075,-0.0043,-0.0046,-0.0048,0,0,0,0,0,0,0,0,0,0,0,0,0,0.0239,0.0239,0.0201,0.0201,0.02,0.0131,0.013,0.0129,0.0076,0.0076,0.0075,0.0075,-0.0042,-0.0045,-0.0049,0,0,0,0,0,0,0,0,0,0,0,0,0,0.02,0.0239,0.0201,0.0166,0.0162,0.0132,0.013,0.0129,0.0076,0.0076,0.0075,0.0074,-0.0041,-0.0045,-0.0049,-0.0062,0,0,-0.0062,-0.0064,0,0,0,0,0,0,0,0,0.0203,0.0199,0.0172,0.0168,0.0164,0.0113,0.01,0.0063,0.0076,0.0108,0.0075,0.0074,0.0006,-0.0002,-0.0015,-0.0068,-0.0073,-0.0062,-0.0065,-0.0066,-0.0068,0,0,0,0,0,0,0,0.0205,0.0201,0.0173,0.0171,0.0166,0.0136,0.013,0.0093,0.0059,0.0105,0.0101,0.0095,0.0003,-0.0011,-0.0018,-0.0075,-0.0062,-0.0066,-0.0068,-0.007,-0.0157,-0.0157,0,0,0,0,0,0,0.0219,0.0204,0.0175,0.0171,0.0183,0.0136,0.013,0.0129,0.0061,0.005,0.0096,0.0093,-0.0003,-0.0013,-0.0022,-0.0037,-0.0066,-0.007,-0.0073,-0.0157,-0.0157,-0.0156,0,0,0,0,0,0,0.022,0.0218,0.0178,0.0186,0.0179,0.0137,0.0136,0.0128,0.0113,0.0054,0.0043,0.009,-0.0004,-0.0017,-0.0051,-0.0042,-0.0072,-0.0076,-0.0157,-0.0157,-0.0157,-0.007,0,0,0,0,0,0,0.0222,0.0219,0.0223,0.0187,0.0179,0.0166,0.0136,0.0127,0.0111,0.0107,0.0045,0.0034,-0.0006,-0.0045,-0.0055,-0.0049,-0.0079,-0.0157,-0.0157,-0.0157,-0.0073,-0.0067,-0.0061,0,0,0,0,0,0.0224,0.0233,0.0224,0.022,0.0187,0.0167,0.016,0.0126,0.0112,0.011,0.007,0.0036,-0.005,-0.0047,-0.006,-0.0055,-0.0157,-0.0157,-0.0157,-0.0076,-0.0068,-0.0062,0,0,0,0,0,0,0.0245,0.0228,0.0217,0.0219,0.0198,0.0158,0.0155,0.0132,0.01,0.0096,0.0039,0.0025,-0.0004,-0.0041,-0.0037,-0.008,-0.011,-0.0112,-0.0044,-0.0037,-0.0032,-0.0006,-0.0083,0,0,0,0,0,0.0255,0.0262,0.0234,0.0236,0.0231,0.0195,0.0183,0.0163,0.0129,0.0114,0.007,0.0025,-0.0012,-0.0033,-0.0073,-0.0094,-0.0129,-0.0101,-0.0095,-0.0089,-0.0078,-0.0123,-0.0119,-0.0155,-0.0155,-0.0155,0,0,0.0261,0.0255,0.0255,0.0242,0.0224,0.0229,0.0186,0.0176,0.0181,0.0107,0.0095,0.0043,-0.0013,-0.0037,-0.0053,-0.0067,-0.0097,-0.0089,-0.0084,-0.0075,-0.0122,-0.0118,-0.0115,-0.0155,-0.0155,-0.0155,0,0,0.0286,0.0276,0.0293,0.0285,0.0271,0.0253,0.0255,0.022,0.0208,0.019,0.0137,0.0094,0.0039,-0.0,-0.0026,-0.0012,-0.0065,-0.0031,0.0021,-0.0022,-0.0019,-0.0017,-0.005,-0.0051,-0.0026,-0.0026,-0.0026,0,0.0295,0.0317,0.0293,0.031,0.0315,0.0271,0.0294,0.0276,0.0233,0.0231,0.02,0.0119,0.0061,0.0037,0.0034,0.0003,-0.0029,0.0002,-0.0013,-0.0012,-0.0011,-0.0045,-0.0048,-0.0022,-0.0022,-0.0023,-0.0023,0,0.0335,0.0354,0.0365,0.038,0.0378,0.0389,0.0369,0.0361,0.034,0.0317,0.0288,0.0208,0.0162,0.013,0.0083,0.006,0.0034,0.0,-0.0025,-0.0002,-0.004,-0.0044,-0.0016,-0.0017,-0.0019,-0.002,0,0,0.0355,0.039,0.0394,0.0426,0.0422,0.0431,0.0443,0.0446,0.0468,0.0408,0.0422,0.0333,0.0285,0.0251,0.018,0.0131,0.0097,0.0071,0.0067,0.005,0.0008,-0.0034,-0.0043,0.0059,0.0059,0.0058,-0.0018,0,0.0399,0.0463,0.0461,0.052,0.0555,0.0532,0.0551,0.0545,0.0532,0.053,0.0449,0.0428,0.0336,0.0312,0.0249,0.0135,0.0088,0.0121,-0.0022,-0.0025,-0.0057,-0.0049,-0.0019,-0.0087,-0.0022,-0.0023,-0.0024,0,0.0442,0.0486,0.0556,0.0616,0.0629,0.0648,0.0687,0.0702,0.0683,0.0673,0.0632,0.0566,0.0486,0.0405,0.0239,0.0264,0.0147,0.0054,0.0049,-0.0022,-0.0076,-0.0103,-0.0098,-0.0031,-0.0031,-0.003,-0.003,0,0.049,0.0556,0.0624,0.064,0.0688,0.0714,0.0737,0.0741,0.0786,0.0766,0.0781,0.0678,0.0637,0.0476,0.0276,0.0258,0.0093,0.0047,-0.0096,-0.01,-0.0118,-0.0123,-0.0063,-0.0063,-0.0063,-0.0062,-0.0062,0,0.0548,0.0601,0.0653,0.069,0.0776,0.078,0.086,0.087,0.0901,0.0967,0.0858,0.0879,0.0651,0.0526,0.0327,0.0108,0.0134,-0.0081,-0.0123,-0.0088,-0.0089,-0.0079,-0.008,-0.0065,-0.0065,-0.0064,-0.0064,0,0.0597,0.0623,0.071,0.0776,0.0804,0.0865,0.0959,0.1022,0.1028,0.1109,0.111,0.1037,0.0872,0.0628,0.0377,0.0191,-0.0027,-0.0112,-0.0052,-0.0086,-0.0202,-0.0198,-0.0272,-0.0274,-0.0276,-0.0277,-0.0279,0,0.0628,0.0677,0.078,0.084,0.0875,0.0964,0.1034,0.1085,0.1174,0.1214,0.1273,0.1145,0.108,0.0694,0.0342,-0.0003,-0.0043,-0.0197,-0.0238,-0.0191,-0.0224,-0.0217,-0.021,-0.0225,-0.0226,-0.0226,-0.0227,0,0.0693,0.0724,0.0797,0.0927,0.1014,0.1129,0.124,0.1334,0.1401,0.1455,0.1519,0.1466,0.1106,0.0774,0.0297,0.0061,-0.0146,-0.0222,-0.0184,-0.0179,-0.0154,-0.0184,-0.0178,-0.0232,-0.0231,-0.0231,-0.0231,-0.0231,0.0734,0.0801,0.0898,0.1023,0.1137,0.129,0.1402,0.1517,0.1654,0.1753,0.1697,0.1614,0.1239,0.0628,0.0231,-0.0191,-0.0185,-0.0329,-0.0323,-0.0318,-0.0302,-0.0282,-0.038,-0.038,-0.0381,-0.0381,-0.0381,0,0.0801,0.0878,0.0993,0.115,0.1295,0.1341,0.1545,0.165,0.1814,0.1869,0.1888,0.1512,0.113,0.0698,0.0073,-0.03,-0.0319,-0.0414,-0.0347,-0.034,-0.0334,-0.0316,-0.0399,-0.04,-0.0401,-0.0402,0,0,0.0834,0.0957,0.1022,0.1257,0.1377,0.1581,0.1707,0.1831,0.1922,0.1964,0.1914,0.1792,0.1267,0.0818,0.0308,-0.0036,-0.0098,-0.011,-0.0059,0.0087,0.0098,-0.0257,-0.0219,0,0,0,0,0]}],[{"header":{"parameterUnit":"m.s-1","parameterCategory":2,"la1":30.2991,"la2":30.254,"lo1":-89.0895,"lo2":-89.0444,"dy":0.0017,"dx":0.0017,"nx":28,"ny":28,"refTime":"2026-01-05T03:00:00:Z","depth":"4","parameterNumber":2,"parameterNumberName":"U-component_of_CURRENTS"},"data":[0,0,0,0,0,0,0,0,0,0,0,0,0,0,0,0,0,0,0,0,0,0,0,0,0,0,0,0,0,0,0,0,0,0,0,0,0,0,0,0,0,0,0,0,0,0,0,0,0,0,0,0,0,0,0,0,0,0,0.1636,0.1637,0,0.172,0.1721,0.1721,0.1777,0.1777,0.1778,0.1778,0.1871,0.1873,0.1875,0,0,0,0,0,0,0,0,0,0,0,0,0,0.1544,0.1546,0.1636,0.1637,0.1638,0.1719,0.1721,0.1722,0.1777,0.1777,0.1778,0.1778,0.187,0.1873,0.1875,0,0,0,0,0,0,0,0,0,0,0,0,0,0.1601,0.1546,0.1636,0.1676,0.168,0.1719,0.1721,0.1722,0.1777,0.1777,0.1778,0.1778,0.1869,0.1872,0.1876,0.1883,0,0,0.1885,0.1887,0,0,0,0,0,0,0,0,0.1598,0.1604,0.1669,0.1673,0.1678,0.1739,0.1722,0.1776,0.1776,0.174,0.1778,0.1779,0.1827,0.1834,0.1848,0.1887,0.1891,0.1885,0.1887,0.1889,0.189,0,0,0,0,0,0,0,0.1594,0.1601,0.1669,0.167,0.1676,0.1696,0.1705,0.1733,0.1779,0.1743,0.1747,0.1757,0.183,0.1845,0.185,0.1893,0.1885,0.1888,0.189,0.1891,0.2042,0.2044,0,0,0,0,0,0,0.1583,0.1597,0.1666,0.1671,0.1639,0.1697,0.1707,0.1718,0.1779,0.1788,0.1756,0.1759,0.1839,0.1847,0.1854,0.1946,0.1889,0.1892,0.1893,0.204,0.2043,0.2045,0,0,0,0,0,0,0.158,0.1588,0.1663,0.1636,0.1648,0.1698,0.1711,0.172,0.177,0.1789,0.1799,0.1801,0.184,0.1849,0.1916,0.1947,0.1893,0.1896,0.2038,0.2041,0.2044,0.2079,0,0,0,0,0,0,0.1577,0.1587,0.1612,0.1636,0.1649,0.1707,0.1711,0.1721,0.1773,0.1778,0.183,0.1837,0.1841,0.1911,0.1919,0.195,0.1898,0.2035,0.2039,0.2043,0.2075,0.2083,0.209,0,0,0,0,0,0.1574,0.1594,0.1612,0.1622,0.1674,0.1708,0.1717,0.1754,0.1775,0.1801,0.1844,0.1837,0.1942,0.1916,0.1924,0.1957,0.2033,0.2038,0.2043,0.2072,0.2082,0.209,0,0,0,0,0,0,0.1571,0.1602,0.1623,0.1654,0.1691,0.1718,0.1752,0.1776,0.1831,0.1852,0.1866,0.1877,0.1949,0.1953,0.1924,0.2015,0.1986,0.1993,0.2006,0.2015,0.2022,0.2014,0.1901,0,0,0,0,0,0.1581,0.1606,0.1638,0.167,0.1691,0.1731,0.1758,0.1786,0.1826,0.1853,0.1887,0.1929,0.1969,0.1993,0.203,0.2077,0.2094,0.2105,0.2112,0.2118,0.212,0.2184,0.2197,0.2061,0.2061,0.206,0,0,0.1589,0.1611,0.1627,0.1672,0.1707,0.1742,0.175,0.1804,0.184,0.1854,0.1929,0.1964,0.1992,0.2049,0.208,0.2058,0.2169,0.2124,0.2129,0.2128,0.219,0.2203,0.2215,0.2064,0.2063,0.2063,0,0,0.1601,0.1641,0.1662,0.1697,0.1754,0.1779,0.1801,0.1854,0.1889,0.1956,0.1979,0.2035,0.2094,0.2116,0.2133,0.2204,0.2212,0.2222,0.2244,0.2306,0.2318,0.2328,0.2369,0.2383,0.2217,0.2217,0.2217,0,0.1617,0.1644,0.1677,0.1709,0.1744,0.1797,0.1834,0.1875,0.1945,0.1981,0.1989,0.2102,0.2122,0.2185,0.2205,0.2219,0.2253,0.2203,0.2314,0.2325,0.2334,0.2375,0.2389,0.2219,0.2219,0.2219,0.2218,0,0.1634,0.1674,0.1695,0.175,0.1792,0.1838,0.1891,0.1947,0.1999,0.2039,0.2132,0.2169,0.2235,0.2246,0.2243,0.2325,0.2327,0.2321,0.2286,0.235,0.2389,0.2403,0.2222,0.2221,0.2221,0.222,0,0,0.1617,0.1692,0.1703,0.1738,0.1823,0.1854,0.1926,0.1997,0.2055,0.2127,0.2198,0.2261,0.2301,0.2323,0.234,0.2375,0.2465,0.2376,0.2378,0.2406,0.2603,0.2448,0.2448,0.2486,0.2489,0.2491,0.2602,0,0.1627,0.1682,0.1721,0.1791,0.1826,0.1899,0.1955,0.2033,0.2107,0.2192,0.2248,0.2332,0.2326,0.2371,0.2412,0.2463,0.2505,0.2435,0.2546,0.2549,0.2394,0.246,0.25,0.2613,0.2616,0.2619,0.262,0,0.1621,0.1663,0.1725,0.181,0.1835,0.1891,0.2003,0.2064,0.2185,0.2243,0.234,0.2401,0.2489,0.2466,0.2589,0.2553,0.2585,0.2604,0.2609,0.2458,0.242,0.2538,0.2646,0.2644,0.2642,0.2641,0.2639,0,0.1574,0.1661,0.1712,0.1746,0.1851,0.1904,0.1974,0.2091,0.2156,0.23,0.2372,0.2484,0.2562,0.2628,0.2687,0.266,0.2802,0.2771,0.2659,0.2649,0.2738,0.2726,0.2852,0.2852,0.2852,0.2852,0.2851,0,0.1549,0.1592,0.1704,0.1734,0.1806,0.1894,0.1991,0.2072,0.2203,0.2283,0.2412,0.2486,0.261,0.2704,0.2733,0.2744,0.2857,0.2672,0.2671,0.2751,0.274,0.2748,0.2735,0.2856,0.2855,0.2854,0.2853,0,0.1478,0.1554,0.1614,0.1737,0.1785,0.184,0.1991,0.2048,0.2197,0.2308,0.2363,0.2528,0.2649,0.2751,0.2861,0.2792,0.2821,0.2796,0.2887,0.2887,0.2613,0.2601,0.2675,0.267,0.2667,0.2663,0.2661,0,0.1437,0.1466,0.16,0.1636,0.1699,0.1803,0.1862,0.2023,0.2085,0.2307,0.2339,0.2524,0.2618,0.2658,0.2766,0.2826,0.2791,0.2776,0.2668,0.2606,0.2598,0.2591,0.2584,0.2655,0.2654,0.2653,0.2652,0,0.1352,0.1416,0.1462,0.1543,0.1616,0.1687,0.1797,0.1836,0.2014,0.2178,0.2269,0.2348,0.2479,0.2561,0.2634,0.2664,0.2765,0.2735,0.2742,0.264,0.2582,0.2576,0.2574,0.2639,0.2641,0.2642,0.2642,0,0.1279,0.1284,0.1354,0.1416,0.1498,0.1535,0.1619,0.1703,0.1796,0.2046,0.2072,0.2277,0.2445,0.248,0.2547,0.2571,0.2524,0.2417,0.2439,0.2455,0.2331,0.2222,0.2174,0,0,0,0,0,0.1196,0.1183,0.1219,0.1267,0.1347,0.1403,0.1545,0.1635,0.1829,0.1838,0.1952,0.2068,0.2179,0.2284,0.2268,0.2451,0.2529,0.2419,0.2414,0.2565,0.2581,0.2455,0,0,0,0,0,0,0.1121,0.1147,0.1161,0.1136,0.1147,0.1216,0.1304,0.144,0.1465,0.1678,0.1758,0.1921,0.2071,0.2165,0.2219,0.2252,0.2202,0.2554,0.2548,0.2557,0.2571,0.2583,0.2459,0,0,0,0,0]},{"header":{"parameterUnit":"m.s-1","parameterCategory":2,"la1":30.2991,"la2":30.254,"lo1":-89.0895,"lo2":-89.0444,"dy":0.0017,"dx":0.0017,"nx":28,"ny":28,"refTime":"2026-01-05T03:00:00:Z","depth":"4","parameterNumber":3,"parameterNumberName":"V-component_of_CURRENTS"},"data":[0,0,0,0,0,0,0,0,0,0,0,0,0,0,0,0,0,0,0,0,0,0,0,0,0,0,0,0,0,0,0,0,0,0,0,0,0,0,0,0,0,0,0,0,0,0,0,0,0,0,0,0,0,0,0,0,0,0,0.0264,0.0263,0,0.0216,0.0216,0.0215,0.0183,0.0183,0.0183,0.0182,0.0095,0.0093,0.0091,0,0,0,0,0,0,0,0,0,0,0,0,0,0.0278,0.0278,0.0264,0.0263,0.0263,0.0216,0.0216,0.0215,0.0183,0.0183,0.0183,0.0182,0.0096,0.0093,0.0091,0,0,0,0,0,0,0,0,0,0,0,0,0,0.0255,0.0278,0.0264,0.0242,0.0239,0.0217,0.0216,0.0215,0.0183,0.0183,0.0182,0.0182,0.0097,0.0094,0.009,0.0075,0,0,0.008,0.0079,0,0,0,0,0,0,0,0,0.0256,0.0254,0.0246,0.0243,0.0241,0.0206,0.0189,0.0166,0.0183,0.0203,0.0182,0.0182,0.0129,0.0123,0.0114,0.0071,0.0067,0.008,0.0078,0.0077,0.0076,0,0,0,0,0,0,0,0.0258,0.0256,0.0244,0.0245,0.0242,0.0218,0.0215,0.0184,0.0167,0.0202,0.0199,0.0196,0.0128,0.0118,0.0112,0.0066,0.008,0.0077,0.0075,0.0074,0.0011,0.0012,0,0,0,0,0,0,0.0268,0.0258,0.0246,0.0243,0.0249,0.0218,0.0214,0.0217,0.0168,0.0161,0.0196,0.0194,0.0123,0.0116,0.0109,0.0108,0.0077,0.0074,0.0072,0.0011,0.0011,0.0012,0,0,0,0,0,0,0.0269,0.0268,0.0248,0.0249,0.0245,0.0218,0.0221,0.0216,0.0209,0.0164,0.0156,0.0195,0.0123,0.0113,0.0089,0.0103,0.0072,0.0069,0.0011,0.0011,0.0012,0.0092,0,0,0,0,0,0,0.027,0.0269,0.0275,0.025,0.0245,0.024,0.0221,0.0215,0.0207,0.0205,0.016,0.0152,0.0122,0.0094,0.0085,0.0098,0.0067,0.001,0.0011,0.0011,0.0089,0.0095,0.0101,0,0,0,0,0,0.027,0.0278,0.0275,0.0274,0.0255,0.0241,0.0236,0.0215,0.0208,0.0207,0.0179,0.0154,0.0091,0.0092,0.0081,0.0094,0.001,0.0011,0.0011,0.0087,0.0094,0.01,0,0,0,0,0,0,0.0281,0.0275,0.0271,0.0275,0.0263,0.0236,0.0234,0.0221,0.0199,0.0199,0.0156,0.0145,0.0127,0.0098,0.0099,0.0076,0.0047,0.0046,0.0107,0.0114,0.012,0.0139,0.0064,0,0,0,0,0,0.029,0.0298,0.0282,0.0287,0.0283,0.0261,0.0254,0.0243,0.022,0.0211,0.0181,0.0149,0.0121,0.0109,0.0076,0.0066,0.0024,0.0066,0.0072,0.0077,0.0085,0.0038,0.0041,0.0014,0.0014,0.0014,0,0,0.0292,0.0293,0.0295,0.029,0.028,0.0284,0.0256,0.0252,0.0258,0.0204,0.02,0.0164,0.0121,0.0109,0.0098,0.0088,0.006,0.0078,0.0083,0.0088,0.0039,0.0042,0.0044,0.0014,0.0014,0.0014,0,0,0.0309,0.0307,0.0322,0.0319,0.0314,0.0302,0.0305,0.0285,0.0279,0.0269,0.0233,0.0211,0.0168,0.0146,0.0128,0.0145,0.0088,0.0132,0.0183,0.0137,0.0139,0.0141,0.0083,0.0078,0.014,0.0141,0.0141,0,0.0313,0.0335,0.0321,0.0337,0.0342,0.0316,0.0334,0.0322,0.0298,0.0297,0.0278,0.0224,0.0189,0.0177,0.0186,0.016,0.0117,0.0163,0.0146,0.0146,0.0146,0.0087,0.0081,0.0145,0.0144,0.0144,0.0143,0,0.0342,0.0362,0.0369,0.0387,0.0388,0.0398,0.0387,0.0386,0.0375,0.0361,0.0345,0.0296,0.0267,0.0252,0.0226,0.0214,0.0177,0.0155,0.0133,0.0154,0.0089,0.0082,0.015,0.0149,0.0148,0.0147,0,0,0.0346,0.0385,0.0389,0.0416,0.042,0.0427,0.0439,0.0444,0.0458,0.0427,0.0434,0.0391,0.0363,0.0341,0.03,0.0267,0.0229,0.0221,0.0217,0.0172,0.0115,0.0084,0.0072,0.0203,0.0202,0.0202,0.0067,0,0.0376,0.0429,0.0435,0.0482,0.0509,0.05,0.0515,0.0515,0.0504,0.0501,0.0456,0.0442,0.0397,0.0387,0.0347,0.0258,0.0214,0.0267,0.0094,0.0089,0.0066,0.0065,0.02,0.0061,0.0059,0.0058,0.0057,0,0.0404,0.0442,0.0499,0.055,0.0559,0.058,0.0608,0.062,0.0605,0.0595,0.0571,0.0526,0.048,0.0437,0.0299,0.0333,0.0235,0.0161,0.0153,0.0094,0.0045,0.0035,0.0042,0.0044,0.0045,0.0046,0.0046,0,0.0427,0.0486,0.0541,0.0557,0.0602,0.0627,0.0648,0.0651,0.0678,0.0657,0.0664,0.0588,0.0555,0.0433,0.0282,0.0288,0.0114,0.0099,-0.0026,-0.003,0.0002,0.0002,-0.0003,-0.0003,-0.0003,-0.0002,-0.0002,0,0.0458,0.0502,0.0562,0.0593,0.0661,0.0673,0.0733,0.0737,0.0755,0.0789,0.072,0.071,0.0553,0.0437,0.0293,0.0106,0.0115,-0.002,-0.0064,0.0037,0.0043,-0.0004,-0.0003,-0.0007,-0.0006,-0.0005,-0.0004,0,0.0475,0.0511,0.0583,0.0649,0.0677,0.0726,0.0805,0.0849,0.0849,0.0888,0.0887,0.0798,0.064,0.0461,0.0245,0.0125,-0.0054,-0.0127,-0.0016,-0.0052,-0.0172,-0.0165,-0.027,-0.0272,-0.0274,-0.0276,-0.0277,0,0.0488,0.0528,0.0629,0.068,0.0718,0.0796,0.0855,0.0894,0.0942,0.0937,0.0957,0.0826,0.0737,0.0413,0.0212,-0.0081,-0.012,-0.0218,-0.018,-0.0166,-0.0198,-0.0188,-0.0178,-0.028,-0.028,-0.0281,-0.0281,0,0.0516,0.0555,0.0617,0.0727,0.0806,0.0899,0.0982,0.1023,0.1061,0.1064,0.101,0.0848,0.0659,0.0411,0.0173,-0.0032,-0.0153,-0.0238,-0.0235,-0.0199,-0.0179,-0.0207,-0.0195,-0.0287,-0.0287,-0.0286,-0.0286,0,0.0536,0.0586,0.0673,0.0769,0.0873,0.0972,0.1012,0.1063,0.1106,0.1097,0.1068,0.0868,0.0754,0.0432,0.0217,0.0006,-0.004,-0.0097,-0.0102,-0.0097,-0.0007,0.0047,-0.003,0,0,0,0,0,0.0554,0.0617,0.0709,0.0821,0.0927,0.0989,0.1089,0.112,0.1151,0.1127,0.1103,0.0926,0.0605,0.0465,0.025,0.0172,-0.0086,-0.0089,-0.0155,-0.0322,-0.0315,-0.024,0,0,0,0,0,0,0.0567,0.0655,0.071,0.085,0.0928,0.1052,0.1115,0.1137,0.112,0.1111,0.0946,0.0867,0.0555,0.0728,0.0244,0.0179,0.0106,-0.0236,-0.0241,-0.0326,-0.032,-0.0314,-0.0235,0,0,0,0,0]}]]